Time,TemperatureF,DewpointF,PressureIn,WindDirection,WindDirectionDegrees,WindSpeedMPH,WindSpeedGustMPH,Humidity,HourlyPrecipIn,Conditions,Clouds,dailyrainin,SolarRadiationWatts/m^2,SoftwareType,DateUTC
2013-02-01 00:01:00,40.0,24.0,-100.00,WSW,254,5.0,14.0,53,0.00,,,0.00,13.000000,,2013-02-01 00:01:00,
2013-02-01 00:11:00,40.0,24.0,-100.00,WSW,254,5.0,14.0,53,0.00,,,0.00,13.000000,,2013-02-01 00:11:00,
2013-02-01 00:22:00,40.0,24.0,-100.00,WSW,254,5.0,14.0,53,0.00,,,0.00,13.000000,,2013-02-01 00:22:00,
2013-02-01 00:32:00,40.0,24.0,-100.00,WSW,254,5.0,14.0,53,0.00,,,0.00,13.000000,,2013-02-01 00:32:00,
2013-02-01 00:52:00,41.0,27.0,-100.00,West,262,7.0,16.0,58,0.00,,,0.00,0.000000,,2013-02-01 00:52:00,
2013-02-01 01:01:00,41.0,27.0,-100.00,West,262,7.0,16.0,58,0.00,,,0.00,0.000000,,2013-02-01 01:01:00,
2013-02-01 01:11:00,41.0,27.0,-100.00,West,262,7.0,16.0,58,0.00,,,0.00,0.000000,,2013-02-01 01:11:00,
2013-02-01 01:21:00,41.0,27.0,-100.00,West,262,7.0,16.0,58,0.00,,,0.00,0.000000,,2013-02-01 01:21:00,
2013-02-01 01:32:00,41.0,27.0,-100.00,West,262,7.0,16.0,58,0.00,,,0.00,0.000000,,2013-02-01 01:32:00,
2013-02-01 01:52:00,33.0,31.0,-100.00,WNW,284,10.0,20.0,93,0.02,,,0.02,0.000000,,2013-02-01 01:52:00,
2013-02-01 02:02:00,33.0,31.0,-100.00,WNW,284,10.0,20.0,93,0.02,,,0.02,0.000000,,2013-02-01 02:02:00,
2013-02-01 02:11:00,33.0,31.0,-100.00,WNW,284,10.0,20.0,93,0.02,,,0.02,0.000000,,2013-02-01 02:11:00,
2013-02-01 02:21:00,33.0,31.0,-100.00,WNW,284,10.0,20.0,93,0.02,,,0.02,0.000000,,2013-02-01 02:21:00,
2013-02-01 02:31:00,33.0,31.0,-100.00,WNW,284,10.0,20.0,93,0.02,,,0.02,0.000000,,2013-02-01 02:31:00,
2013-02-01 02:52:00,32.0,31.0,-100.00,WNW,288,7.0,19.0,96,0.00,,,0.02,0.000000,,2013-02-01 02:52:00,
2013-02-01 03:02:00,32.0,31.0,-100.00,WNW,288,7.0,19.0,96,0.00,,,0.02,0.000000,,2013-02-01 03:02:00,
2013-02-01 03:12:00,32.0,31.0,-100.00,WNW,288,7.0,19.0,96,0.00,,,0.02,0.000000,,2013-02-01 03:12:00,
2013-02-01 03:21:00,32.0,31.0,-100.00,WNW,288,7.0,19.0,96,0.00,,,0.02,0.000000,,2013-02-01 03:21:00,
2013-02-01 03:32:00,32.0,31.0,-100.00,WNW,288,7.0,19.0,96,0.00,,,0.02,0.000000,,2013-02-01 03:32:00,
2013-02-01 04:02:00,28.0,24.0,-100.00,WNW,291,6.0,19.0,84,0.00,,,0.02,0.000000,,2013-02-01 04:02:00,
2013-02-01 04:11:00,28.0,24.0,-100.00,WNW,291,6.0,19.0,84,0.00,,,0.02,0.000000,,2013-02-01 04:11:00,
2013-02-01 04:21:00,28.0,24.0,-100.00,WNW,291,6.0,19.0,84,0.00,,,0.02,0.000000,,2013-02-01 04:21:00,
2013-02-01 04:32:00,28.0,24.0,-100.00,WNW,291,6.0,19.0,84,0.00,,,0.02,0.000000,,2013-02-01 04:32:00,
2013-02-01 05:03:00,25.0,21.0,-100.00,NW,304,5.0,18.0,83,0.00,,,0.02,0.000000,,2013-02-01 05:03:00,
2013-02-01 05:12:00,25.0,21.0,-100.00,NW,304,5.0,18.0,83,0.00,,,0.02,0.000000,,2013-02-01 05:12:00,
2013-02-01 05:22:00,25.0,21.0,-100.00,NW,304,5.0,18.0,83,0.00,,,0.02,0.000000,,2013-02-01 05:22:00,
2013-02-01 05:32:00,25.0,21.0,-100.00,NW,304,5.0,18.0,83,0.00,,,0.02,0.000000,,2013-02-01 05:32:00,
2013-02-01 06:02:00,22.0,16.0,-100.00,WNW,300,6.0,14.0,77,0.00,,,0.02,0.000000,,2013-02-01 06:02:00,
2013-02-01 06:11:00,22.0,16.0,-100.00,WNW,300,6.0,14.0,77,0.00,,,0.02,0.000000,,2013-02-01 06:11:00,
2013-02-01 06:22:00,22.0,16.0,-100.00,WNW,300,6.0,14.0,77,0.00,,,0.02,0.000000,,2013-02-01 06:22:00,
2013-02-01 06:32:00,22.0,16.0,-100.00,WNW,300,6.0,14.0,77,0.00,,,0.02,0.000000,,2013-02-01 06:32:00,
2013-02-01 07:02:00,20.0,11.0,-100.00,WNW,292,6.0,18.0,68,0.00,,,-99.99,0.000000,,2013-02-01 07:02:00,
2013-02-01 07:12:00,20.0,11.0,-100.00,WNW,292,6.0,18.0,68,0.00,,,-99.99,0.000000,,2013-02-01 07:12:00,
2013-02-01 07:22:00,20.0,11.0,-100.00,WNW,292,6.0,18.0,68,0.00,,,-99.99,0.000000,,2013-02-01 07:22:00,
2013-02-01 07:32:00,20.0,11.0,-100.00,WNW,292,6.0,18.0,68,0.00,,,-99.99,0.000000,,2013-02-01 07:32:00,
2013-02-01 07:52:00,19.0,10.0,-100.00,WNW,298,4.0,18.0,66,0.00,,,0.02,0.000000,,2013-02-01 07:52:00,
2013-02-01 08:01:00,19.0,10.0,-100.00,WNW,298,4.0,18.0,66,0.00,,,0.02,0.000000,,2013-02-01 08:01:00,
2013-02-01 08:11:00,19.0,10.0,-100.00,WNW,298,4.0,18.0,66,0.00,,,0.02,0.000000,,2013-02-01 08:11:00,
2013-02-01 08:21:00,19.0,10.0,-100.00,WNW,298,4.0,18.0,66,0.00,,,0.02,0.000000,,2013-02-01 08:21:00,
2013-02-01 08:32:00,19.0,10.0,-100.00,WNW,298,4.0,18.0,66,0.00,,,0.02,0.000000,,2013-02-01 08:32:00,
2013-02-01 08:52:00,17.0,6.0,-100.00,NNW,341,4.0,11.0,61,0.00,,,0.02,0.000000,,2013-02-01 08:52:00,
2013-02-01 09:01:00,17.0,6.0,-100.00,NNW,341,4.0,11.0,61,0.00,,,0.02,0.000000,,2013-02-01 09:01:00,
2013-02-01 09:11:00,17.0,6.0,-100.00,NNW,341,4.0,11.0,61,0.00,,,0.02,0.000000,,2013-02-01 09:11:00,
2013-02-01 09:21:00,17.0,6.0,-100.00,NNW,341,4.0,11.0,61,0.00,,,0.02,0.000000,,2013-02-01 09:21:00,
2013-02-01 09:32:00,17.0,6.0,-100.00,NNW,341,4.0,11.0,61,0.00,,,0.02,0.000000,,2013-02-01 09:32:00,
2013-02-01 09:52:00,15.0,5.0,-100.00,WNW,302,3.0,10.0,65,0.00,,,0.02,0.000000,,2013-02-01 09:52:00,
2013-02-01 10:01:00,15.0,5.0,-100.00,WNW,302,3.0,10.0,65,0.00,,,0.02,0.000000,,2013-02-01 10:01:00,
2013-02-01 10:11:00,15.0,5.0,-100.00,WNW,302,3.0,10.0,65,0.00,,,0.02,0.000000,,2013-02-01 10:11:00,
2013-02-01 10:21:00,15.0,5.0,-100.00,WNW,302,3.0,10.0,65,0.00,,,0.02,0.000000,,2013-02-01 10:21:00,
2013-02-01 10:31:00,15.0,5.0,-100.00,WNW,302,3.0,10.0,65,0.00,,,0.02,0.000000,,2013-02-01 10:31:00,
2013-02-01 10:53:00,13.0,5.0,-100.00,NNE,12,1.0,5.0,70,0.00,,,0.02,,,2013-02-01 10:53:00,
2013-02-01 11:02:00,13.0,5.0,-100.00,NNE,12,1.0,5.0,70,0.00,,,0.02,,,2013-02-01 11:02:00,
2013-02-01 11:11:00,13.0,5.0,-100.00,NNE,12,1.0,5.0,70,0.00,,,0.02,,,2013-02-01 11:11:00,
2013-02-01 11:22:00,13.0,5.0,-100.00,NNE,12,1.0,5.0,70,0.00,,,0.02,,,2013-02-01 11:22:00,
2013-02-01 11:32:00,13.0,5.0,-100.00,NNE,12,1.0,5.0,70,0.00,,,0.02,,,2013-02-01 11:32:00,
2013-02-01 11:53:00,13.0,5.0,-100.00,SE,127,0.0,4.0,69,0.00,,,0.02,0.000000,,2013-02-01 11:53:00,
2013-02-01 12:02:00,13.0,5.0,-100.00,SE,127,0.0,4.0,69,0.00,,,0.02,0.000000,,2013-02-01 12:02:00,
2013-02-01 12:12:00,13.0,5.0,-100.00,SE,127,0.0,4.0,69,0.00,,,0.02,0.000000,,2013-02-01 12:12:00,
2013-02-01 12:22:00,13.0,5.0,-100.00,SE,127,0.0,4.0,69,0.00,,,0.02,0.000000,,2013-02-01 12:22:00,
2013-02-01 12:32:00,13.0,5.0,-100.00,SE,127,0.0,4.0,69,0.00,,,0.02,0.000000,,2013-02-01 12:32:00,
2013-02-01 13:02:00,11.0,4.0,-100.00,WSW,240,0.0,3.0,73,0.00,,,0.02,0.000000,,2013-02-01 13:02:00,
2013-02-01 13:11:00,11.0,4.0,-100.00,WSW,240,0.0,3.0,73,0.00,,,0.02,0.000000,,2013-02-01 13:11:00,
2013-02-01 13:22:00,11.0,4.0,-100.00,WSW,240,0.0,3.0,73,0.00,,,0.02,0.000000,,2013-02-01 13:22:00,
2013-02-01 13:32:00,11.0,4.0,-100.00,WSW,240,0.0,3.0,73,0.00,,,0.02,0.000000,,2013-02-01 13:32:00,
2013-02-01 13:53:00,16.0,7.0,-100.00,NW,323,1.0,3.0,68,0.00,,,0.02,39.000000,,2013-02-01 13:53:00,
2013-02-01 14:03:00,16.0,7.0,-100.00,NW,323,1.0,3.0,68,0.00,,,0.02,39.000000,,2013-02-01 14:03:00,
2013-02-01 14:11:00,16.0,7.0,-100.00,NW,323,1.0,3.0,68,0.00,,,0.02,39.000000,,2013-02-01 14:11:00,
2013-02-01 14:21:00,16.0,7.0,-100.00,NW,323,1.0,3.0,68,0.00,,,0.02,39.000000,,2013-02-01 14:21:00,
2013-02-01 14:32:00,16.0,7.0,-100.00,NW,323,1.0,3.0,68,0.00,,,0.02,39.000000,,2013-02-01 14:32:00,
2013-02-01 15:02:00,20.0,8.0,-100.00,NNW,347,3.0,6.0,58,0.00,,,0.02,218.000000,,2013-02-01 15:02:00,
2013-02-01 15:12:00,20.0,8.0,-100.00,NNW,347,3.0,6.0,58,0.00,,,0.02,218.000000,,2013-02-01 15:12:00,
2013-02-01 15:22:00,20.0,8.0,-100.00,NNW,347,3.0,6.0,58,0.00,,,0.02,218.000000,,2013-02-01 15:22:00,
2013-02-01 15:33:00,20.0,8.0,-100.00,NNW,347,3.0,6.0,58,0.00,,,0.02,218.000000,,2013-02-01 15:33:00,
2013-02-01 16:03:00,19.0,6.0,-100.00,West,268,4.0,10.0,57,0.00,,,0.02,303.000000,,2013-02-01 16:03:00,
2013-02-01 16:11:00,19.0,6.0,-100.00,West,268,4.0,10.0,57,0.00,,,0.02,303.000000,,2013-02-01 16:11:00,
2013-02-01 16:22:00,19.0,6.0,-100.00,West,268,4.0,10.0,57,0.00,,,0.02,303.000000,,2013-02-01 16:22:00,
2013-02-01 16:33:00,19.0,6.0,-100.00,West,268,4.0,10.0,57,0.00,,,0.02,303.000000,,2013-02-01 16:33:00,
2013-02-01 16:52:00,24.0,5.0,-100.00,West,265,2.0,9.0,43,0.04,,,0.06,569.000000,,2013-02-01 16:52:00,
2013-02-01 17:02:00,24.0,5.0,-100.00,West,265,2.0,9.0,43,0.04,,,0.06,569.000000,,2013-02-01 17:02:00,
2013-02-01 17:32:00,24.0,5.0,-100.00,West,265,2.0,9.0,43,0.04,,,0.06,569.000000,,2013-02-01 17:32:00,
2013-02-01 17:53:00,24.0,6.0,-100.00,West,281,5.0,10.0,45,0.01,,,0.07,659.000000,,2013-02-01 17:53:00,
2013-02-01 18:03:00,24.0,6.0,-100.00,West,281,5.0,10.0,45,0.01,,,0.07,659.000000,,2013-02-01 18:03:00,
2013-02-01 18:12:00,24.0,6.0,-100.00,West,281,5.0,10.0,45,0.01,,,0.07,659.000000,,2013-02-01 18:12:00,
2013-02-01 18:22:00,24.0,6.0,-100.00,West,281,5.0,10.0,45,0.01,,,0.07,659.000000,,2013-02-01 18:22:00,
2013-02-01 18:32:00,24.0,6.0,-100.00,West,281,5.0,10.0,45,0.01,,,0.07,659.000000,,2013-02-01 18:32:00,
2013-02-01 19:03:00,26.0,7.0,-100.00,WNW,282,4.0,10.0,44,0.00,,,0.07,677.000000,,2013-02-01 19:03:00,
2013-02-01 19:12:00,26.0,7.0,-100.00,WNW,282,4.0,10.0,44,0.00,,,0.07,677.000000,,2013-02-01 19:12:00,
2013-02-01 19:21:00,26.0,7.0,-100.00,WNW,282,4.0,10.0,44,0.00,,,0.07,677.000000,,2013-02-01 19:21:00,
2013-02-01 19:32:00,26.0,7.0,-100.00,WNW,282,4.0,10.0,44,0.00,,,0.07,677.000000,,2013-02-01 19:32:00,
2013-02-01 20:02:00,27.0,9.0,-100.00,SW,234,5.0,10.0,46,0.01,,,0.08,636.000000,,2013-02-01 20:02:00,
2013-02-01 20:11:00,27.0,9.0,-100.00,SW,234,5.0,10.0,46,0.01,,,0.08,636.000000,,2013-02-01 20:11:00,
2013-02-01 20:21:00,27.0,9.0,-100.00,SW,234,5.0,10.0,46,0.01,,,0.08,636.000000,,2013-02-01 20:21:00,
2013-02-01 20:31:00,27.0,9.0,-100.00,SW,234,5.0,10.0,46,0.01,,,0.08,636.000000,,2013-02-01 20:31:00,
2013-02-01 20:52:00,28.0,10.0,-100.00,SSW,210,5.0,10.0,46,0.00,,,0.08,539.000000,,2013-02-01 20:52:00,
2013-02-01 21:02:00,28.0,10.0,-100.00,SSW,210,5.0,10.0,46,0.00,,,0.08,539.000000,,2013-02-01 21:02:00,
2013-02-01 21:12:00,28.0,10.0,-100.00,SSW,210,5.0,10.0,46,0.00,,,0.08,539.000000,,2013-02-01 21:12:00,
2013-02-01 21:21:00,28.0,10.0,-100.00,SSW,210,5.0,10.0,46,0.00,,,0.08,539.000000,,2013-02-01 21:21:00,
2013-02-01 21:32:00,28.0,10.0,-100.00,SSW,210,5.0,10.0,46,0.00,,,0.08,539.000000,,2013-02-01 21:32:00,
2013-02-01 21:52:00,28.0,10.0,-100.00,West,261,4.0,9.0,47,0.00,,,0.08,383.000000,,2013-02-01 21:52:00,
2013-02-01 22:02:00,28.0,10.0,-100.00,West,261,4.0,9.0,47,0.00,,,0.08,383.000000,,2013-02-01 22:02:00,
2013-02-01 22:11:00,28.0,10.0,-100.00,West,261,4.0,9.0,47,0.00,,,0.08,383.000000,,2013-02-01 22:11:00,
2013-02-01 22:21:00,28.0,10.0,-100.00,West,261,4.0,9.0,47,0.00,,,0.08,383.000000,,2013-02-01 22:21:00,
2013-02-01 22:32:00,28.0,10.0,-100.00,West,261,4.0,9.0,47,0.00,,,0.08,383.000000,,2013-02-01 22:32:00,
2013-02-01 22:52:00,27.0,10.0,-100.00,WSW,241,4.0,8.0,49,0.00,,,0.08,194.000000,,2013-02-01 22:52:00,
2013-02-01 23:01:00,27.0,10.0,-100.00,WSW,241,4.0,8.0,49,0.00,,,0.08,194.000000,,2013-02-01 23:01:00,
2013-02-01 23:11:00,27.0,10.0,-100.00,WSW,241,4.0,8.0,49,0.00,,,0.08,194.000000,,2013-02-01 23:11:00,
2013-02-01 23:21:00,27.0,10.0,-100.00,WSW,241,4.0,8.0,49,0.00,,,0.08,194.000000,,2013-02-01 23:21:00,
2013-02-01 23:31:00,27.0,10.0,-100.00,WSW,241,4.0,8.0,49,0.00,,,0.08,194.000000,,2013-02-01 23:31:00,
2013-02-01 23:52:00,23.0,9.0,-100.00,West,278,2.0,6.0,54,0.00,,,0.08,22.000000,,2013-02-01 23:52:00,